Regional Weather Roundup
Issued by NWS New Orleans/Baton Rouge, LA

Home | Current Version | Previous Version | Text Only | Print | Product List | Glossary On
Versions: 1 2 3 4 5 6 7 8 9 10 11 12 13 14 15 16 17 18 19 20 21 22 23 24 25 26 27 28 29 30 31 32 33 34 35 36 37 38 39 40 41 42 43 44 45 46 47 48 49 50
739
ASUS44 KLIX 231201
RWRLIX
NEW ORLEANS REGIONAL WEATHER ROUNDUP
NATIONAL WEATHER SERVICE NEW ORLEANS LA
600 AM CST SUN NOV 23 2014

NOTE: "FAIR" INDICATES FEW OR NO CLOUDS BELOW 12,000 FEET WITH NO
      SIGNIFICANT WEATHER AND/OR OBSTRUCTIONS TO VISIBILITY.
      SKY/WX - SKY CONDITION AND SIGNIFICANT WEATHER.
      TMP - AIR TEMPERATURE.     DP    - DEWPOINT TEMPERATURE.
      RH  - RELATIVE HUMIDITY.   PRES  - PRESSURE.
      HI  - HEAT INDEX.          WCI   - WIND CHILL INDEX.

*  THESE STATIONS ARE NOT NWS OR FAA STATIONS AND ARE NOT UNDER
   NWS QUALITY CONTROL.

LAZ038-040-048-061>063-065>067-069-231300-
SOUTHEAST LOUISIANA

CITY           SKY/WX    TMP DP  RH WIND       PRES   REMARKS
N.O. AUDUBON     N/A     62  61  99 MISG        N/A
6HR MIN TEMP:  61; 6HR MAX TEMP:  62; 6HR PCP:  0.07;

N.O. INTL ARPT LGT RAIN  63  61  93 E8        29.72S FOG
6HR MIN TEMP:  62; 6HR MAX TEMP:  65; 6HR PCP:  0.03;

N.O. LAKEFRONT LGT RAIN  63  61  93 SE5       29.75R VSB 1/2
6HR MIN TEMP:  60; 6HR MAX TEMP:  63; 6HR PCP:  0.07;

N.O. DOWNTOWN* CLOUDY    63  59  88 NE7       29.73F
6HR MIN TEMP:  61; 6HR MAX TEMP:  63; 6HR PCP:  0.06;

SLIDELL        CLOUDY    65  64  97 E3        29.73F FOG
6HR MIN TEMP:  64; 6HR MAX TEMP:  65; 6HR PCP:  0.02;

BATON ROUGE    RAIN      64  63  96 NE9       29.68F
6HR MIN TEMP:  63; 6HR MAX TEMP:  64; 6HR PCP:  0.17;

BOOTHVILLE     CLOUDY    68  68 100 SE9       29.72S
6HR MIN TEMP:  64; 6HR MAX TEMP:  68; 6HR PCP: TRACE;

BELLE CHASSE   RAIN      63  60  90 E8        29.73R
6HR MIN TEMP:  62; 6HR MAX TEMP:  63; 6HR PCP:  0.06;

BOGALUSA*      LGT RAIN  63  60  90 CALM      29.78S VSB 1
6HR MIN TEMP:  63; 6HR MAX TEMP:  64;

NEW ROADS*     NOT AVBL
GONZALES*      NOT AVBL
HAMMOND*       LGT RAIN  64  61  88 E5        29.73F
HOUMA*         SHOWER    64  64 100 SW10G20   29.76R FOG
PORT FOURCHON* NOT AVBL

$$

MSZ070-080>082-231300-
SOUTHERN MISSISSIPPI

CITY           SKY/WX    TMP DP  RH WIND       PRES   REMARKS
MCCOMB         LGT RAIN  61  60  97 SE7       29.74F FOG
6HR MIN TEMP:  61; 6HR MAX TEMP:  61; 6HR PCP:  0.01;

GULFPORT       CLOUDY    65  64  97 E6        29.74S FOG
6HR MIN TEMP:  62; 6HR MAX TEMP:  65; 6HR PCP:  0.01;

BILOXI         CLOUDY    64  64 100 E3        29.75F
6HR MIN TEMP:  62; 6HR MAX TEMP:  65; 6HR PCP:  0.02;

PASCAGOULA     LGT RAIN  70  69  97 SE12      29.75F
6HR MIN TEMP:  62; 6HR MAX TEMP:  70; 6HR PCP: TRACE;


$$

COASTAL OBSERVATIONS
LAKE AND NEARSHORE STATIONS

STATION/POSITION TIME  TEMP    WIND        PRES    WAVE
                       AIR SEA DIR/SP/G            HT/PER
                 (UTC) (F)     (DEG/KT/KT) (MB)    (FT/S)
PASCAGOULA       1100   67     110/  7/ 13 1007.0
WAVELAND YACHT   1100   66     110/ 12/ 13 1006.5
GRAND ISLE       1100   69 62  150/  8/ 13 1006.6
SOUTHWEST PASS   1100   70 71              1006.6
NEW CANAL        1100   59 54   70/  6/  6 1007.2
SHELL BEACH      1100   60 53   50/  8/  9 1006.6

OFFSHORE STATIONS

STATION/POSITION TIME  TEMP    WIND        PRES    WAVE
                       AIR SEA DIR/SP/G            HT/PER
                 (UTC) (F)     (DEG/KT/KT) (MB)    (FT/S)
64 S DAUPHIN ISL 1147   74 72  150/ 16/ 17 1008.3    7/ 8

$$




USA.gov is the U.S. government's official web portal to all federal, state and local government web resources and services.